TimePDT,TemperatureF,Dew PointF,Humidity,Sea Level PressureIn,VisibilityMPH,Wind Direction,Wind SpeedMPH,Gust SpeedMPH,PrecipitationIn,Events,Conditions,WindDirDegrees,DateUTC
12:15 AM,53.6,35.6,51,30.33,10.0,Calm,Calm,-,N/A,,Clear,0,2013-08-17 07:15:00
12:35 AM,55.4,35.6,47,30.33,10.0,Calm,Calm,-,N/A,,Clear,0,2013-08-17 07:35:00
12:55 AM,57.2,35.6,44,30.33,10.0,Calm,Calm,-,N/A,,Clear,0,2013-08-17 07:55:00
1:15 AM,53.6,35.6,51,30.33,10.0,Calm,Calm,-,N/A,,Clear,0,2013-08-17 08:15:00
1:35 AM,48.2,32.0,54,30.33,10.0,Calm,Calm,-,N/A,,Clear,0,2013-08-17 08:35:00
1:55 AM,51.8,35.6,54,30.32,10.0,Calm,Calm,-,N/A,,Clear,0,2013-08-17 08:55:00
2:15 AM,51.8,35.6,54,30.32,10.0,Calm,Calm,-,N/A,,Clear,0,2013-08-17 09:15:00
2:35 AM,53.6,35.6,51,30.32,10.0,Calm,Calm,-,N/A,,Clear,0,2013-08-17 09:35:00
2:55 AM,48.2,33.8,58,30.32,10.0,North,3.5,-,N/A,,Clear,350,2013-08-17 09:55:00
3:15 AM,48.2,35.6,62,30.31,10.0,Calm,Calm,-,N/A,,Clear,0,2013-08-17 10:15:00
3:35 AM,50.0,35.6,58,30.31,10.0,Calm,Calm,-,N/A,,Clear,0,2013-08-17 10:35:00
3:55 AM,50.0,35.6,58,30.31,10.0,Calm,Calm,-,N/A,,Clear,0,2013-08-17 10:55:00
4:15 AM,48.2,35.6,62,30.31,10.0,NNW,4.6,-,N/A,,Clear,330,2013-08-17 11:15:00
4:35 AM,50.0,35.6,58,30.31,10.0,Calm,Calm,-,N/A,,Clear,0,2013-08-17 11:35:00
4:55 AM,48.2,35.6,62,30.31,10.0,Calm,Calm,-,N/A,,Clear,0,2013-08-17 11:55:00
5:15 AM,50.0,37.4,62,30.31,10.0,Calm,Calm,-,N/A,,Clear,0,2013-08-17 12:15:00
5:35 AM,50.0,35.6,58,30.31,10.0,Calm,Calm,-,N/A,,Clear,0,2013-08-17 12:35:00
5:55 AM,48.2,35.6,62,30.31,10.0,Calm,Calm,-,N/A,,Clear,0,2013-08-17 12:55:00
6:15 AM,48.2,35.6,62,30.31,10.0,Calm,Calm,-,N/A,,Clear,0,2013-08-17 13:15:00
6:35 AM,46.4,33.8,62,30.31,10.0,Calm,Calm,-,N/A,,Clear,0,2013-08-17 13:35:00
6:55 AM,48.2,35.6,62,30.32,10.0,Calm,Calm,-,N/A,,Clear,0,2013-08-17 13:55:00
7:15 AM,51.8,37.4,58,30.32,10.0,Calm,Calm,-,N/A,,Clear,0,2013-08-17 14:15:00
7:35 AM,55.4,37.4,51,30.32,10.0,Calm,Calm,-,N/A,,Clear,0,2013-08-17 14:35:00
7:55 AM,59.0,37.4,45,30.32,10.0,Calm,Calm,-,N/A,,Clear,0,2013-08-17 14:55:00
8:15 AM,62.6,37.4,39,30.32,10.0,Calm,Calm,-,N/A,,Clear,0,2013-08-17 15:15:00
8:35 AM,66.2,39.2,37,30.32,10.0,Calm,Calm,-,N/A,,Clear,0,2013-08-17 15:35:00
8:55 AM,68.0,39.2,35,30.32,10.0,SSE,3.5,-,N/A,,Clear,160,2013-08-17 15:55:00
9:15 AM,69.8,39.2,33,30.32,10.0,South,4.6,-,N/A,,Clear,170,2013-08-17 16:15:00
9:35 AM,73.4,37.4,27,30.32,10.0,ESE,5.8,-,N/A,,Clear,120,2013-08-17 16:35:00
9:55 AM,75.2,37.4,25,30.32,10.0,ESE,4.6,-,N/A,,Clear,110,2013-08-17 16:55:00
10:15 AM,77.0,35.6,22,30.32,10.0,SE,6.9,-,N/A,,Clear,130,2013-08-17 17:15:00
10:35 AM,77.0,35.6,22,30.32,10.0,ESE,5.8,-,N/A,,Clear,120,2013-08-17 17:35:00
10:55 AM,78.8,33.8,20,30.31,10.0,SE,9.2,-,N/A,,Clear,130,2013-08-17 17:55:00
11:15 AM,82.4,33.8,17,30.31,10.0,ESE,9.2,-,N/A,,Clear,120,2013-08-17 18:15:00
11:35 AM,82.4,33.8,17,30.30,10.0,ESE,5.8,-,N/A,,Clear,110,2013-08-17 18:35:00
11:55 AM,82.4,33.8,17,30.29,10.0,ESE,10.4,17.3,N/A,,Scattered Clouds,110,2013-08-17 18:55:00
12:15 PM,82.4,33.8,17,30.28,10.0,SE,9.2,-,N/A,,Scattered Clouds,140,2013-08-17 19:15:00
12:35 PM,84.2,33.8,16,30.27,10.0,SE,10.4,18.4,N/A,,Scattered Clouds,130,2013-08-17 19:35:00
12:55 PM,84.2,33.8,16,30.26,10.0,ESE,15.0,18.4,N/A,,Scattered Clouds,110,2013-08-17 19:55:00
1:15 PM,80.6,33.8,18,30.26,10.0,ESE,11.5,19.6,N/A,,Mostly Cloudy,120,2013-08-17 20:15:00
1:35 PM,82.4,33.8,17,30.26,10.0,ESE,9.2,18.4,N/A,,Mostly Cloudy,110,2013-08-17 20:35:00
1:55 PM,84.2,33.8,16,30.25,10.0,ESE,13.8,-,N/A,,Mostly Cloudy,110,2013-08-17 20:55:00
2:15 PM,82.4,37.4,20,30.25,10.0,ESE,15.0,20.7,N/A,,Mostly Cloudy,110,2013-08-17 21:15:00
2:35 PM,78.8,37.4,23,30.24,10.0,ESE,16.1,24.2,N/A,,Mostly Cloudy,110,2013-08-17 21:35:00
2:55 PM,80.6,39.2,23,30.24,10.0,East,12.7,16.1,N/A,,Mostly Cloudy,100,2013-08-17 21:55:00
3:15 PM,82.4,37.4,20,30.23,10.0,East,10.4,-,N/A,,Mostly Cloudy,100,2013-08-17 22:15:00
3:35 PM,78.8,35.6,21,30.22,10.0,SE,12.7,-,N/A,,Mostly Cloudy,140,2013-08-17 22:35:00
3:55 PM,82.4,37.4,20,30.22,10.0,ESE,10.4,-,N/A,,Mostly Cloudy,110,2013-08-17 22:55:00
4:15 PM,80.6,37.4,21,30.21,10.0,SE,6.9,-,N/A,,Scattered Clouds,130,2013-08-17 23:15:00
4:35 PM,80.6,35.6,20,30.21,10.0,East,5.8,-,N/A,,Scattered Clouds,100,2013-08-17 23:35:00
4:55 PM,80.6,35.6,20,30.21,10.0,ESE,6.9,-,N/A,,Scattered Clouds,120,2013-08-17 23:55:00
5:15 PM,78.8,37.4,23,30.21,10.0,ESE,10.4,-,N/A,,Scattered Clouds,120,2013-08-18 00:15:00
5:55 PM,80.6,39.2,23,30.22,10.0,SE,5.8,-,N/A,,Mostly Cloudy,130,2013-08-18 00:55:00
6:15 PM,78.8,37.4,23,30.22,10.0,East,6.9,-,N/A,,Mostly Cloudy,90,2013-08-18 01:15:00
6:35 PM,77.0,37.4,24,30.22,10.0,NW,11.5,-,N/A,,Scattered Clouds,320,2013-08-18 01:35:00
6:55 PM,75.2,35.6,24,30.22,10.0,NNW,9.2,16.1,N/A,,Mostly Cloudy,330,2013-08-18 01:55:00
7:15 PM,73.4,35.6,25,30.22,10.0,NW,6.9,-,N/A,,Scattered Clouds,320,2013-08-18 02:15:00
7:35 PM,71.6,35.6,27,30.23,10.0,NW,8.1,-,N/A,,Clear,310,2013-08-18 02:35:00
7:55 PM,69.8,35.6,28,30.23,10.0,WNW,5.8,-,N/A,,Scattered Clouds,300,2013-08-18 02:55:00
8:15 PM,69.8,35.6,28,30.24,10.0,West,6.9,-,N/A,,Scattered Clouds,280,2013-08-18 03:15:00
8:35 PM,68.0,35.6,30,30.24,10.0,West,5.8,-,N/A,,Scattered Clouds,260,2013-08-18 03:35:00
8:55 PM,66.2,35.6,32,30.24,10.0,West,5.8,9.2,N/A,,Clear,280,2013-08-18 03:55:00
9:15 PM,64.4,35.6,34,30.25,10.0,West,6.9,-,N/A,,Clear,280,2013-08-18 04:15:00
9:35 PM,64.4,35.6,34,30.25,10.0,WNW,6.9,-,N/A,,Clear,290,2013-08-18 04:35:00
9:55 PM,60.8,35.6,39,30.26,10.0,West,4.6,-,N/A,,Clear,280,2013-08-18 04:55:00
10:15 PM,62.6,35.6,37,30.26,10.0,Calm,Calm,-,N/A,,Clear,0,2013-08-18 05:15:00
10:35 PM,60.8,37.4,42,30.26,10.0,West,6.9,-,N/A,,Clear,270,2013-08-18 05:35:00
10:55 PM,59.0,37.4,45,30.26,10.0,WNW,3.5,-,N/A,,Clear,290,2013-08-18 05:55:00
11:15 PM,59.0,37.4,45,30.26,10.0,WNW,3.5,-,N/A,,Clear,300,2013-08-18 06:15:00
11:35 PM,59.0,37.4,45,30.26,10.0,West,3.5,-,N/A,,Clear,260,2013-08-18 06:35:00
11:55 PM,57.2,37.4,48,30.26,10.0,Calm,Calm,-,N/A,,Clear,0,2013-08-18 06:55:00